Погода в Намангане

Погода в Намангане : погода сейчас, прогноз погоды и архив. Всё, что Вы хотите узнать о погоде в Намангане!

Хотите узнать прогноз погоды в Намангане? Тогда Вам сюда: Погода в Намангане

Поиск расширенной информации на нашем сайте:

Полезная информация: Тумбы в прихожую недорогие тумбы.

Другие новости

Новости СМИ2

Главная страница сайта

Новости сайта

02.10.2013

Напоминаем, что на нашем новом сайте вы можете получить высокодетализированные прогнозы погоды по пунктам России, СНГ и мира (включающие важные для авиации метеовеличины, такие как направление и скорость ветра, видимость, явления погоды, количество и форма облачности, нижняя и верхняя граница облачности), а также ознакомиться с разнообразными материалами по авиационной метеорологии и подборкой полезных ссылок на эту тему.

Сайт Метеоцентр.Азия посвящён разработке технологий оптимизации авиаметеорологического обслуживания, включая проектирование и перспективное создание нескольких автоматизированных авиаметеорологических систем:
- система выпуска высокодетальных прогностических карт явлений погоды для нижнего воздушного пространства по России и ближнему зарубежью;
- система верификации прогнозов TAF (выпускаемых синоптиками официальных АМСГ РФ и ближнего зарубежья) и AUTOTAF (выпускаемых сайтом Метеоцентр.Азия) - выявление ошибок, онлайн-сопоставление с фактической погодой METAR, автоматическое внесение коррективов в прогнозы при резком отклонении фактической погоды от прогноза, подсчёт оправдываемости прогнозов по элементам и в целом;
- система обработки, анализа и отображения авиаметеорологической информации для применения провайдерами метеорологической информации.

Рекомендуем: Визитки заказать воронеж сайт визитка недорого в воронеже заказать.

Погода в Намангане - сегодня

Время (UTC), дата Ветер
(°,м/с) 
Видим.   Явления Облачность Т
(°С)
Тd
(°С)
f(%) Тe
(°С)
Pmin
(гПа)
dP
(гПа)
Po
(мм)
O2
(г/м3)
Тmin Tmax R s Состояние
почвы
06 16.02.17 210 (ЮЗ) 2000 м  дымка  9/0 средняя 
[Ac lent]
+7 +1.5 68 +7  1022.5  -0.8  724  284  +0.6         
09 16.02.17 220 (ЮЗ) 2000 м  дымка  9/9 1000 м 
[Sc]
+7.6 +3.6 76 +7  1019.9  -2.3  722  283           
12 16.02.17 140 (ЮВ) 2000 м  дымка  9/0 средняя 
[Ac lent]
+7.7 +5.5 86 +9  1016.3  -3.4  720  281           
15 16.02.17 010 (С) 1000 м  дымка  10/0 средняя 
[Ac As]
+6.6 +5 90 +6  1016.6  0.1  720  282    +8.7       
18 16.02.17 тихо ()   0200 м  туман  ?/?  
+4.3 +2.8 90 +4  1017.5  0.4  720  285    +8.7       
21 16.02.17 010 (С) 0200 м  туман  ?/?  
+3.4 +2.4 93 +4  1020.7  2.8  722  287           
00 17.02.17 060 (СВ) 0500 м  слаб. дождь{туман}  10/10 1500 м 
[Sc]
+5 +3.8 92 +5  1022.4  724  286           
03 17.02.17 340 (С) 2000 м  слаб. дождь{туман}  10/10 1000 м 
[Sc]
+5.6 +3.7 88 +5  1023.2  0.9  724  285         
06 17.02.17 340 (С) 10 км  {дождь, туман}  9/9 1000 м 
[Sc]
+10.8 +3 59 +10  1018.3  -3.7  722  279  +2.8       
09 17.02.17 340 (С) 10 км    10/10 1500 м 
[Sc]
+13.5 +5.5 58 +13  1013.7  -3.8  719  275           
12 17.02.17 250 (З) 10 км    10/10 1500 м кучево-дожд. 
[Cb cap]
+10.8 +8.1 83 +10  1015.4  1.1  720  277           
18 17.02.17 340 (С) 2000 м  дымка  10/0 средняя 
[Ac As]
+8.4 +6.4 87 +8  1015.7  -1.2  720  280    +14.7  0.9     
21 17.02.17 310 (СЗ) 10 км    10/0 средняя 
[Ac As]
+8.2 +5.8 85 +9  1012.6  -3  717  280           
00 18.02.17 240 (ЮЗ) 0200 м  туман  ?/?  
+4.7 +3 89 +3  1012.6  -0.8  717  283           
03 18.02.17 220 (ЮЗ) 4000 м  слаб. дождь{туман}  10/10 300 м 
[Ns]
+3.4 +3.2 99 +2  1014.3  1.4  718  285         
06 18.02.17 160 (Ю) 4000 м  дождь{туман}  10/10 100 м 
[Ns]
+4.2 +3 92 +5  1016.5  2.3  719  285  +3       
09 18.02.17 120 (ЮВ) 4000 м  дождь  10/10 100 м 
[Ns]
+4.6 +3.6 93 +5  1016.9  0.4  720  285           
12 18.02.17 200 (Ю) 4000 м  слаб. дождь  10/10 300 м 
[Sc]
+3 +1.7 91 +2  1018.7  1.3  721  287           
18 18.02.17 240 (ЮЗ) 2000 м  слаб. снег{ливн. осадки, дождь}  10/10 300 м 
[Ns]
-0.1 -2.7 83 -5  1024.9  2.5  725  292    +5.3  17     
21 18.02.17 240 (ЮЗ) 0500 м  сильн. снег  10/10 300 м 
[Ns]
-1.6 -3.6 86 -6  1029.3  3.8  728  295           
00 19.02.17 100 (В) 10 км  слаб. снег{туман}  10/10 300 м 
[Ns]
-1.8 -3.2 90 -5  1031.6  1.9  729  296           
03 19.02.17 050 (СВ) 1000 м  снег  10/10 100 м 
[Ns]
-2.4 -5.3 80 -4  1034.8  3.1  731  298       
06 19.02.17 350 (С) 4000 м  слаб. снег  10/10 600 м 
[Ns]
-0.6 -1.8 92 -2  1038.4  3.8  734  297  -3       
09 19.02.17 030 (СВ) 10 км  {снег}  10/10 600 м кучево-дожд. 
[Cb cap]
+1.2 -3.7 70 +1  1039  0.8  735  295           
12 19.02.17 350 (С) 10 км  {снег}  9/9 1000 м 
[Sc diur, vesp]
+0.5 -3.1 77 -1  1041  1.8  736  296           
Время (UTC), дата Ветер
(°,м/с) 
Видим.   Явления Облачность Т
(°С)
Тd
(°С)
f(%) Тe
(°С)
Pmin
(гПа)
dP
(гПа)
Po
(мм)
O2
(г/м3)
Тmin Tmax R s Состояние
почвы

Для получения пояснительной информации подведите курсор к названию столбца.

ПОГОДА в Намангане - архив

Всё, что Вы хотите узнать о погоде в Намангане - удобно и подробно!

Выберите нужную дату (начиная с 1 января 2015* года) и нажмите кнопку "Найти".
Будут отображены архивные сводки погоды по пункту Наманган, начиная с указанной даты.


Отображать данные в формате CSV (для использования в таблицах Excel)


Внимание! Наш архив погоды предназначен исключительно для личного некоммерческого использования в познавательных целях. Если Вам необходимы официальные справки о состоянии погоды (для производственных, юридических, коммерческих и т.п. целей), обращайтесь в органы Росгидромета.

*Примечание: данная дата относится к архиву по метеостанциям СССР (Россия, СНГ, Балтия).
Архив по метеостанциям Зарубежной Европы и Азии (кроме Китая) хранится 10 дней, по другим регионам земного шара (Китай, Африка, Америка, Австралия, Океания) - 1 день.

Наманган - район местоположения метеостанции


Название, широта, долгота, высота метеостанции:
Наманган 41°ш. 71.6°д. 474 м над ур. моря [Узбекистан]

Дополнительная информация

В oтличие oт бoльшинства пoгoдных сайтoв мы публикуем пoдрoбную метеoинфoрмацию в детальнoм прoфессиoнальнoм фoрмате.

Характеристики температуры и влажнoсти вoздуха измеряются на высoте 2 м в тени вдали oт зданий и деревьев.
Скoрoсть ветра измеряется на высoте 10 м (на урoвне рoста челoвека скoрoсть ветра ниже в 1.5-2 раза). Если метеoстанция нахoдится в гoрoде или в лесу, тo скoрoсть ветра занижена на 2-4 м/с пo сравнению с oткрытым местoм. Скoрoсть ветра над акватoриями крупных рек и oзёр, а также на вершинах хoлмoв на 2-5 м/с выше, чем в oбычных услoвиях.
Атмoсфернoе давление в разных тoчках местнoсти мoжет значительнo oтличаться oт давления на метеoстанции, в зависимoсти oт услoвий рельефа (при пoдъёме на 10 м давление пoнижается примернo на 1 мм рт.ст.).